GW0895 Weather Reports


Display with metric or nautical units.
time (UTC)temp
F
wind
direction
speed
MPH
gust
MPH
rain 1hr
in
rain 24hr
in
rain mn
in
humidity
%
barometer
mb
20260505004046 46 28 5.0 20.0 0.03 0.03 0.03 80 1011.5
20260505003550 47 25 8.0 20.0 0.02 0.02 0.02 77 1011.5
20260505003048 47 49 10.0 20.0 0.01 0.01 0.01 74 1011.4
20260505002547 49 0 12.0 22.0 0.01 0.01 0.01 69 1011.3
20260505002047 50 49 9.0 22.0 0.00 0.00 0.00 67 1011.4
20260505001551 53 51 5.0 16.0 0.00 0.00 0.00 58 1011.1
20260505001046 54 17 3.0 15.0 0.00 0.00 0.00 56 1010.9
20260505000546 55 28 6.0 15.0 0.00 0.00 0.00 54 1010.8
20260505000101 55 112 1.0 7.0 0.00 0.00 0.00 53 1010.7
20260504235547 56 0 0.0 6.0 0.00 0.00 0.00 53 1010.5
20260504235050 56 0 0.0 6.0 0.00 0.00 0.00 53 1010.4
20260504234604 57 0 0.0 5.0 0.00 0.00 0.00 52 1010.3
20260504234050 57 0 0.0 4.0 0.00 0.00 0.00 52 1010.3
20260504233547 57 0 0.0 5.0 0.00 0.00 0.00 50 1010.3
20260504233051 57 0 0.0 5.0 0.00 0.00 0.00 51 1010.3
20260504232547 57 134 1.0 5.0 0.00 0.00 0.00 51 1010.2
20260504232047 58 0 0.0 0.0 0.00 0.00 0.00 49 1010.3
20260504231552 58 0 0.0 1.0 0.00 0.00 0.00 50 1010.3
20260504231047 57 0 0.0 5.0 0.00 0.00 0.00 50 1010.3
20260504230547 57 134 0.0 5.0 0.00 0.00 0.00 47 1010.3
20260504230052 57 0 0.0 9.0 0.00 0.00 0.00 46 1010.2
20260504225547 57 0 2.0 9.0 0.00 0.00 0.00 46 1010.3
20260504225050 58 0 0.0 8.0 0.00 0.00 0.00 46 1010.1
20260504224550 58 128 1.0 7.0 0.00 0.00 0.00 45 1010.1
20260504224047 58 0 1.0 7.0 0.00 0.00 0.00 44 1009.9
20260504223547 58 0 0.0 3.0 0.00 0.00 0.00 45 1009.9
20260504223052 59 0 0.0 0.0 0.00 0.00 0.00 44 1009.9
20260504222547 58 0 0.0 3.0 0.00 0.00 0.00 43 1010.0
20260504222051 58 0 0.0 6.0 0.00 0.00 0.00 42 1009.7
20260504221551 58 0 0.0 12.0 0.00 0.00 0.00 42 1009.7
20260504221047 58 105 2.0 12.0 0.00 0.00 0.00 41 1009.4
20260504220547 58 0 1.0 8.0 0.00 0.00 0.00 42 1009.4
20260504220100 59 145 1.0 10.0 0.00 0.00 0.00 42 1009.4
20260504215547 59 0 1.0 10.0 0.00 0.00 0.00 42 1009.3
20260504215049 59 0 0.0 12.0 0.00 0.00 0.00 42 1009.4
20260504214600 59 168 4.0 12.0 0.00 0.00 0.00 41 1009.4
20260504214048 60 152 1.0 10.0 0.00 0.00 0.00 41 1009.1
20260504213547 60 109 1.0 9.0 0.00 0.00 0.00 41 1009.2
20260504213112 59 107 2.0 9.0 0.00 0.00 0.00 42 1009.2
20260504212548 58 0 0.0 5.0 0.00 0.00 0.00 43 1009.4
20260504212046 58 89 0.0 7.0 0.00 0.00 0.00 43 1009.6
20260504211558 57 0 1.0 7.0 0.00 0.00 0.00 43 1009.6
20260504211048 57 0 0.0 11.0 0.00 0.00 0.00 43 1009.6
20260504210551 57 0 2.0 11.0 0.00 0.00 0.00 43 1009.5
20260504210105 57 78 2.0 13.0 0.00 0.00 0.00 43 1009.5
20260504205547 58 82 3.0 17.0 0.00 0.00 0.00 39 1009.5
20260504205048 59 53 3.0 17.0 0.00 0.00 0.00 37 1009.6
20260504204604 59 63 5.0 13.0 0.00 0.00 0.00 34 1009.5
20260504204049 60 46 1.0 12.0 0.00 0.00 0.00 32 1009.5
20260504203547 61 0 4.0 16.0 0.00 0.00 0.00 31 1009.4
20260504203057 62 72 4.0 16.0 0.00 0.00 0.00 30 1009.3
20260504202548 62 0 3.0 16.0 0.00 0.00 0.00 29 1009.3
20260504202048 63 78 2.0 24.0 0.00 0.00 0.00 29 1009.3
20260504201556 64 11 10.0 24.0 0.00 0.00 0.00 28 1008.9
20260504201047 65 9 11.0 19.0 0.00 0.00 0.00 26 1008.9
20260504200548 65 19 12.0 23.0 0.00 0.00 0.00 26 1009.0
20260504200058 66 28 9.0 26.0 0.00 0.00 0.00 26 1009.1
20260504195547 67 54 13.0 26.0 0.00 0.00 0.00 24 1009.1
20260504195048 67 352 8.0 20.0 0.00 0.00 0.00 25 1009.2
20260504194558 66 24 3.0 21.0 0.00 0.00 0.00 27 1009.2
20260504194047 66 0 9.0 30.0 0.00 0.00 0.00 26 1009.3
20260504193547 66 26 16.0 30.0 0.00 0.00 0.00 26 1009.2
20260504193104 66 17 8.0 17.0 0.00 0.00 0.00 26 1009.3
20260504192548 66 52 3.0 23.0 0.00 0.00 0.00 26 1009.2
20260504192050 65 36 8.0 23.0 0.00 0.00 0.00 27 1009.2
20260504191553 65 32 7.0 18.0 0.00 0.00 0.00 28 1009.2
20260504191047 64 46 3.0 16.0 0.00 0.00 0.00 30 1009.3
20260504190547 64 42 6.0 17.0 0.00 0.00 0.00 32 1009.4
20260504190054 63 62 5.0 21.0 0.00 0.00 0.00 32 1009.3
20260504185547 63 32 5.0 21.0 0.00 0.00 0.00 32 1009.5
20260504185048 63 33 7.0 21.0 0.00 0.00 0.00 31 1009.5
20260504184556 63 28 4.0 17.0 0.00 0.00 0.00 29 1009.6
20260504184048 63 0 1.0 10.0 0.00 0.00 0.00 29 1009.4
20260504183545 63 0 2.0 15.0 0.00 0.00 0.00 29 1009.4
20260504183100 63 300 5.0 15.0 0.00 0.00 0.00 29 1009.4
20260504182547 63 293 3.0 11.0 0.00 0.00 0.00 29 1009.5
20260504182048 62 0 2.0 11.0 0.00 0.00 0.00 29 1009.6
20260504181553 62 0 3.0 11.0 0.00 0.00 0.00 30 1009.7
20260504181048 62 296 1.0 14.0 0.00 0.00 0.00 30 1009.7
20260504180548 62 297 4.0 14.0 0.00 0.00 0.00 30 1009.7
20260504180131 61 306 5.0 13.0 0.00 0.00 0.00 30 1009.8
20260504175547 61 270 5.0 14.0 0.00 0.00 0.00 30 1009.9
20260504175047 61 273 6.0 14.0 0.00 0.00 0.00 30 1009.9
20260504174551 61 275 3.0 11.0 0.00 0.00 0.00 30 1009.9
20260504174047 61 265 5.0 14.0 0.00 0.00 0.00 30 1010.0
20260504173547 61 0 8.0 16.0 0.00 0.00 0.00 30 1010.1
20260504173052 61 247 7.0 16.0 0.00 0.00 0.00 30 1010.1
20260504172547 61 259 4.0 12.0 0.00 0.00 0.00 30 1010.1
20260504172047 61 0 1.0 8.0 0.00 0.00 0.00 30 1009.9
20260504171600 61 296 1.0 11.0 0.00 0.00 0.00 30 1010.0
20260504171047 61 299 3.0 15.0 0.00 0.00 0.00 30 1010.1
20260504170547 61 303 8.0 15.0 0.00 0.00 0.00 30 1009.9
20260504151048 60 0 5.0 11.0 0.00 0.00 0.00 27 1010.3
20260504150547 60 0 2.0 11.0 0.00 0.00 0.00 27 1010.4
20260504150106 60 319 2.0 10.0 0.00 0.00 0.00 27 1010.4
20260504141047 59 319 2.0 9.0 0.00 0.00 0.00 25 1010.7
20260504140547 59 323 4.0 10.0 0.00 0.00 0.00 24 1010.6
20260504130547 57 347 4.0 12.0 0.00 0.00 0.00 22 1010.4
20260504120105 50 0 2.0 4.0 0.00 0.00 0.00 28 1009.9
20260504110552 50 0 0.0 0.0 0.00 0.00 0.00 27 1010.1
20260504100550 49 0 0.0 0.0 0.00 0.00 0.00 30 1010.3
20260504100111 49 0 0.0 0.0 0.00 0.00 0.00 30 1010.3
20260504081551 51 0 0.0 1.0 0.00 0.00 0.00 26 1011.2
20260504081047 51 0 0.0 0.0 0.00 0.00 0.00 27 1011.4
20260504080547 51 0 0.0 0.0 0.00 0.00 0.00 28 1011.5
20260504080105 51 0 0.0 0.0 0.00 0.00 0.00 28 1011.4
20260504060103 54 0 0.0 0.0 0.00 0.00 0.00 29 1012.3
20260504050547 56 0 0.0 4.0 0.00 0.00 0.00 26 1012.4
20260504050119 56 0 0.0 5.0 0.00 0.00 0.00 27 1012.5
20260504045546 55 297 2.0 8.0 0.00 0.00 0.00 27 1012.5
20260504045048 55 297 2.0 8.0 0.00 0.00 0.00 28 1012.5
20260504044553 55 297 0.0 4.0 0.00 0.00 0.00 29 1012.7
20260504044048 56 0 0.0 3.0 0.00 0.00 0.00 29 1012.7
20260504043549 57 0 0.0 3.0 0.00 0.00 0.00 28 1012.8
20260504043100 57 0 0.0 3.0 0.00 0.00 0.00 26 1012.7
20260504042547 57 297 0.0 4.0 0.00 0.00 0.00 25 1012.6
20260504042049 58 0 0.0 4.0 0.00 0.00 0.00 26 1012.5
20260504041557 58 297 0.0 1.0 0.00 0.00 0.00 26 1012.6
20260504041048 58 0 0.0 0.0 0.00 0.00 0.00 27 1012.7
20260504040548 58 0 0.0 0.0 0.00 0.00 0.00 26 1012.6
20260504040105 58 0 0.0 2.0 0.00 0.00 0.00 26 1012.7
20260504035547 58 0 0.0 2.0 0.00 0.00 0.00 26 1012.6
20260504035049 58 0 0.0 3.0 0.00 0.00 0.00 26 1012.7
20260504034610 58 0 0.0 4.0 0.00 0.00 0.00 26 1012.7
20260504034046 59 0 1.0 4.0 0.00 0.00 0.00 26 1012.7
20260504033549 59 0 0.0 0.0 0.00 0.00 0.00 26 1012.7
20260504033104 60 0 0.0 0.0 0.00 0.00 0.00 25 1012.7
20260504032548 60 0 0.0 3.0 0.00 0.00 0.00 25 1012.7
20260504032052 60 0 0.0 5.0 0.00 0.00 0.00 24 1012.7
20260504031557 61 297 1.0 5.0 0.00 0.00 0.00 24 1012.5
20260504031047 61 0 0.0 2.0 0.00 0.00 0.00 24 1012.6
20260504030548 61 0 0.0 0.0 0.00 0.00 0.00 24 1012.5
20260504030050 61 0 0.0 1.0 0.00 0.00 0.00 24 1012.5
20260504025547 61 0 0.0 5.0 0.00 0.00 0.00 23 1012.4
20260504025048 61 0 0.0 7.0 0.00 0.00 0.00 23 1012.3
20260504024559 61 297 3.0 8.0 0.00 0.00 0.00 23 1012.3
20260504024047 61 297 3.0 8.0 0.00 0.00 0.00 23 1012.2
20260504023547 62 296 3.0 8.0 0.00 0.00 0.00 24 1012.3
20260504023051 62 296 4.0 10.0 0.00 0.00 0.00 24 1012.3
20260504022548 62 296 5.0 10.0 0.00 0.00 0.00 24 1012.3
20260504022051 61 289 3.0 8.0 0.00 0.00 0.00 24 1012.3
20260504021557 61 288 3.0 8.0 0.00 0.00 0.00 24 1012.1
20260504021048 61 0 1.0 7.0 0.00 0.00 0.00 24 1012.1
20260504020547 61 0 1.0 6.0 0.00 0.00 0.00 24 1012.1
20260504020104 61 0 0.0 3.0 0.00 0.00 0.00 25 1012.1
20260504015547 62 0 0.0 3.0 0.00 0.00 0.00 25 1012.1
20260504015046 62 0 0.0 3.0 0.00 0.00 0.00 25 1012.1
20260504014605 62 0 0.0 3.0 0.00 0.00 0.00 26 1012.0
20260504014046 63 284 0.0 4.0 0.00 0.00 0.00 25 1012.1
20260504013547 63 284 0.0 6.0 0.00 0.00 0.00 25 1012.0
20260504013052 63 0 1.0 6.0 0.00 0.00 0.00 25 1011.9
20260504012550 63 0 0.0 4.0 0.00 0.00 0.00 24 1012.0
20260504012048 64 0 1.0 4.0 0.00 0.00 0.00 24 1012.1
20260504011554 64 0 0.0 7.0 0.00 0.00 0.00 24 1012.1
20260504011048 64 0 0.0 7.0 0.00 0.00 0.00 24 1012.1
20260504010547 64 284 0.0 8.0 0.00 0.00 0.00 23 1012.1
20260504010053 64 0 2.0 8.0 0.00 0.00 0.00 23 1012.1
20260504005549 64 0 1.0 12.0 0.00 0.00 0.00 24 1012.1
20260504005048 64 0 1.0 12.0 0.00 0.00 0.00 24 1012.3
20260504004554 64 265 1.0 13.0 0.00 0.00 0.00 24 1012.4